#timestamp,LO_Frequency,Hit,StdDev 
1581285615.8,286046999.9,N
1581285635.7,286047004.1,N
1581285655.5,286047001.8,N
1581285675.3,286047002.6,N
1581285695.2,286047004.3,N
1581285715.0,286047003.4,N
1581285715.9,286047003.4,N
1581285735.8,286047003.0,N
1581285755.6,286047002.0,N
1581285775.4,286047002.4,N
1581285795.3,286047002.3,N
1581285815.1,286047003.7,N
1581285835.8,286047003.0,N
1581285855.7,286047005.7,Y
1581285875.5,286047002.5,P
1581285895.4,286047001.8,P
1581285915.2,286047001.7,P
1581285935.0,286047004.3,Y
1581285935.9,286047004.3,P
1581285955.8,286046999.8,N
1581285975.6,286047002.8,N
1581285995.5,286047000.1,N
1581286015.3,286047002.8,N
1581286035.1,286047002.8,N
1581286055.9,286047002.0,N
1581286075.7,286046999.8,N
1581286095.5,286047000.6,N
1581286115.4,286047002.8,N
1581286135.2,286047001.6,N
1581286155.1,286047001.8,N
1581286156.0,286047001.8,N
1581286175.8,286047003.6,N
1581286195.6,286047004.3,Y
1581286215.5,286047000.0,P
1581286235.3,286047002.4,N
1581286255.1,286047000.2,N
1581286275.9,286047002.7,N
1581286295.7,286047002.5,N
1581286315.6,286047002.6,N
1581286335.4,286047002.6,N
1581286355.2,286046999.9,N
1581286375.1,286047002.1,N
1581286376.0,286047002.1,N
1581286395.8,286047004.2,Y
1581286415.7,286047004.1,P
1581286435.5,286047000.4,N
1581286455.3,286047000.2,N
1581286475.2,286047004.1,N
1581286495.0,286047003.9,N
1581286495.9,286047003.9,N
1581286515.8,286047004.4,N
1581286535.6,286047001.4,N
1581286555.4,286047002.9,N
1581286575.3,286047001.3,N
1581286595.1,286047002.3,N
1581286615.8,286047002.6,N
1581286635.7,286047001.5,N
1581286655.5,286047002.0,N
1581286675.4,286047002.1,N
1581286695.2,286047003.9,N
1581286715.0,286047001.4,N
1581286715.9,286047001.4,N
1581286735.8,286047001.7,N
1581286755.6,286047001.3,N
1581286775.4,286047002.0,N
1581286795.3,286047001.9,N
1581286815.1,286047003.8,Y
1581286835.9,286046998.2,P
1581286855.7,286047000.6,N
1581286875.5,286047000.0,N
1581286895.4,286046998.5,N
1581286915.2,286046999.7,N
1581286935.0,286047000.3,N
1581286936.0,286047000.3,N
1581286955.8,286047000.1,N
1581286975.6,286047000.8,N
1581286995.5,286047001.0,N
1581287015.3,286047002.6,N
1581287035.1,286047002.7,N
1581287055.9,286046999.8,N
1581287075.7,286047000.4,N
1581287095.6,286047000.0,N
1581287115.4,286047000.0,N
1581287135.2,286047001.8,N
1581287155.1,286047002.7,N
1581287156.0,286047002.7,N
1581287175.8,286047000.4,N
1581287195.6,286047001.0,N
1581287215.5,286046998.4,N
1581287235.3,286047002.4,N
1581287255.2,286047000.0,N
1581287275.0,286047000.5,N
1581287275.9,286047000.5,N
1581287295.8,286047004.3,Y
1581287315.6,286047004.3,P
1581287335.4,286047002.0,N
1581287355.3,286046999.7,N
1581287375.1,286046998.7,N
1581287395.8,286047000.6,N
1581287415.7,286047002.8,N
1581287435.5,286047002.7,N
1581287455.4,286047000.0,N
1581287475.2,286047000.1,N
1581287495.0,286047000.9,N
1581287495.9,286047000.9,N
1581287515.8,286047001.9,N
1581287535.6,286047002.1,N
1581287555.5,286047002.3,N
1581287575.3,286047002.4,N
1581287595.2,286047004.2,Y
1581287615.0,286047002.5,P
1581287615.9,286047002.5,P
1581287635.8,286047002.8,P
1581287655.6,286046999.8,N
1581287675.4,286047002.8,N
1581287695.3,286047001.9,N
1581287715.1,286047000.1,N
1581287735.8,286047002.8,N
1581287755.7,286047004.0,Y
1581287775.5,286046999.9,P
1581287795.4,286047002.4,N
1581287815.2,286047002.7,N
1581287835.0,286047004.4,Y
1581287835.9,286047004.4,P
1581287855.8,286047000.8,N
1581287875.6,286046998.7,N
1581287895.5,286047000.7,N
1581287915.3,286046996.7,N
1581287935.1,286046998.4,N
1581287955.9,286047002.4,N
1581287975.7,286047002.3,N
1581287995.6,286046998.5,N
1581288015.4,286046998.6,N
1581288035.2,286046999.3,N
1581288055.1,286046999.2,N
1581288056.0,286046999.2,N
1581288075.8,286046997.0,N
1581288095.6,286046999.4,N
1581288115.5,286046998.2,N
1581288135.3,286046999.6,N
1581288155.2,286046996.7,N
1581288175.9,286046999.6,N
1581288195.7,286046998.9,N
1581288215.6,286046997.5,N
1581288235.4,286046996.3,N
1581288255.2,286046995.9,N
1581288275.1,286046997.6,N
1581288276.0,286046997.6,N
1581288295.8,286046995.9,N
1581288315.7,286046997.6,N
1581288335.5,286046999.3,N
1581288355.3,286046996.8,N
1581288375.2,286046995.2,N
1581288395.0,286046992.4,Y
1581288395.9,286046992.4,P
1581288415.8,286046993.6,N
1581288435.6,286046993.3,N
1581288455.4,286046993.6,N
1581288475.3,286046996.1,N
1581288495.1,286046998.4,N
1581288515.8,286046996.9,N
1581288535.7,286046998.8,N
1581288555.5,286046998.9,N
1581288575.4,286046999.3,N
1581288595.2,286046998.1,N
1581288615.0,286047002.8,N
1581288615.9,286047002.8,N
1581288635.8,286047000.3,N
1581288655.6,286046999.0,N
1581288675.4,286046997.1,N
1581288695.3,286046998.9,N
1581288715.1,286047000.0,N
1581288735.9,286046998.8,N
1581288755.7,286046998.1,N
1581288775.5,286047001.0,N
1581288795.4,286047000.6,N
1581288815.2,286047000.4,N
1581288835.0,286047000.6,N
1581288835.9,286047000.6,N
1581288855.8,286046999.8,N
1581288875.6,286047002.3,N
1581288895.5,286047001.2,N
1581288915.3,286047001.1,N
1581288935.1,286047000.4,N
1581288955.9,286047000.0,N
1581288975.7,286047000.4,N
1581288995.5,286047002.6,N
1581289015.4,286047002.3,N
1581289035.2,286047004.0,N
1581289055.1,286047003.5,N
1581289056.0,286047003.5,N
1581289075.8,286047001.5,N
1581289095.6,286047004.0,N
1581289115.5,286047001.8,N
1581289135.3,286047001.8,N
1581289155.1,286047001.8,N
1581289175.9,286047000.3,N
1581289195.7,286046999.9,N
